Simultaneous Nadir Overpasses (SNOs) Predictions

Prediction of SNOs between GOES-16 and METOP-C Satellite Orbit:

Table of predicted SNOs for the next 14.0 days since TLE Epoch: 6/22/2024
Index Date Time (GOES-16) GOES-16 Lat,Lon METOP-C Lat,Lon Distance(km) Time Diff (sec)
1 06/22/2024 14:20:17 0.04, -75.21 -0.62, -72.28 333.78 80
2 06/24/2024 02:36:39 -0.04, -75.21 -0.42, -76.88 190.89 80
3 06/25/2024 02:18:41 -0.04, -75.21 0.70, -71.89 378.58 80
4 06/26/2024 14:34:53 0.03, -75.23 0.31, -76.45 139.16 80
5 06/27/2024 14:16:55 0.03, -75.24 -0.82, -71.46 430.88 80
6 06/29/2024 02:33:17 -0.03, -75.25 -0.20, -76.06 92.19 80
7 06/30/2024 02:15:19 -0.03, -75.26 0.93, -71.07 478.23 80
8 07/01/2024 14:31:31 0.03, -75.29 0.07, -75.63 38.54 80
9 07/04/2024 02:29:54 -0.03, -75.32 0.01, -75.23 10.11 80
